Regional Weather Roundup
Issued by NWS

Home | Current Version | Previous Version | Text Only | Print | Product List | Glossary Off
Versions: 1 2 3 4 5 6 7 8 9 10 11 12 13 14 15 16 17 18 19 20 21 22 23 24 25 26 27 28 29 30 31 32 33 34 35 36 37 38 39 40 41 42 43 44 45 46 47 48 49 50

000
ASUS43 KDMX 262204
RWRIA

WEATHER ROUNDUP FOR IOWA
NATIONAL WEATHER SERVICE DES MOINES IA
  ISSUED BY NWS QUAD CITIES IA IL
500 PM CDT THU MAR 26 2015

NOTE: "FAIR" INDICATES FEW OR NO CLOUDS BELOW 12,000 FEET WITH NO
SIGNIFICANT WEATHER AND/OR OBSTRUCTIONS TO VISIBILITY.

* - THESE STATIONS ARE NOT NWS STATIONS...THUS NOT UNDER NWS
QUALITY CONTROL.  THEY ALSO DO NOT REPORT WEATHER SUCH
AS PRECIPITATION OR FOG.

IAZ001>003-012>014-020>022-031>034-043>046-262300-
   NORTHWEST IOWA

CITY           SKY/WX    TMP DP  RH WIND       PRES   REMARKS
CARROLL *      CLOUDY    41  27  56 N15       30.09F WCI  33
DENNISON *     CLOUDY    41  25  52 N15       30.10R WCI  33
LE MARS *      CLOUDY    39  28  65 N9G16     30.14S WCI  33
ORANGE CITY *  CLOUDY    39  23  52 N8G16     30.12S WCI  34
SHELDON *      CLOUDY    37  23  56 N16       30.12S WCI  28
SIOUX CITY     CLOUDY    40  27  59 NW12      30.15R WCI  33
SPENCER        PTSUNNY   38  22  52 NW15      30.12S WCI  29
$$

IAZ055>058-069>071-079>083-090>094-262300-
   SOUTHWEST IOWA

CITY           SKY/WX    TMP DP  RH WIND       PRES   REMARKS
ATLANTIC *     CLOUDY    43  25  49 N13       30.09F WCI  36
AUDUBON *      CLOUDY    43  21  42 N13       30.10F WCI  36
CLARINDA *     MOSUNNY   48  27  43 NW12      30.10F
COUNCIL BLFS * CLOUDY    45  25  45 N14       30.10R WCI  38
CRESTON *      MOSUNNY   45  23  42 N14       30.08S WCI  38
HARLAN *       CLOUDY    43  25  49 N12       30.13S WCI  37
LAMONI         PTSUNNY   49  25  39 N12       30.06F
RED OAK *      CLOUDY    46  25  42 NW7       30.09S
SHENANDOAH *   PTSUNNY   48  25  40 N8        30.09F
$$

IAZ047>049-059>061-072>074-084-262300-
   CENTRAL IOWA

CITY           SKY/WX    TMP DP  RH WIND       PRES   REMARKS
AMES           PTSUNNY   42  24  49 N18G26    30.09S WCI  34
ANKENY *       PTSUNNY   45  23  42 NW14G20   30.08S WCI  38
BOONE *        PTSUNNY   41  23  48 NW17      30.07S WCI  32
CHARITON *     MOSUNNY   45  25  45 NW17      30.07S WCI  37
DES MOINES     CLOUDY    45  23  42 N14G20    30.09S WCI  38
GRINNELL *     PTCLDY    44  24  45 NW16G24   30.07S WCI  36
KNOXVILLE *    MOSUNNY   43  23  45 NW15      30.06S WCI  35
MARSHALLTOWN   PTSUNNY   41  24  51 NW17G28   30.07S WCI  32
PERRY *        MOCLDY    43  27  52 NW15      30.09S WCI  35
$$

IAZ004>006-015-016-023>025-035-036-262300-
   NORTH CENTRAL IOWA

CITY           SKY/WX    TMP DP  RH WIND       PRES   REMARKS
ALGONA *       CLOUDY    37  21  52 N10G20    30.11S WCI  30
CLARION *      CLOUDY    37  25  60 N14G21    30.09F WCI  29
ESTHERVILLE    CLOUDY    35  22  58 N21       30.11R WCI  24
FORT DODGE *   CLOUDY    37  21  52 NW7       30.11S WCI  32
MASON CITY     CLOUDY    36  22  56 N20       30.10R WCI  25
FOREST CITY *  CLOUDY    32  23  69 NW16      30.10R WCI  21
WEBSTER CITY * CLOUDY    37  25  60 NW17      30.08S WCI  28
IOWA FALLS *   MOCLDY    39  25  58 NW18      30.09S WCI  29
$$

IAZ007>011-017>019-026>030-037>042-050>054-066-262300-
   NORTHEAST IOWA

CITY           SKY/WX    TMP DP  RH WIND       PRES   REMARKS
CEDAR RAPIDS   SUNNY     41  22  46 N18       30.04S WCI  32
CHARLES CITY * PTSUNNY   34  25  69 N15G24    30.09S WCI  24
CLINTON *      MOSUNNY   43  25  49 NW16G25   30.05R WCI  35
DECORAH *      CLOUDY    32  19  59 NW13      30.06S WCI  22
DUBUQUE        CLOUDY    36  21  54 NW18G25   30.04R WCI  26
MONTICELLO *   MOSUNNY   37  23  56 NW18      30.05S WCI  27
OELWEIN *      PTSUNNY   34  23  64 N16G24    30.07S WCI  23
WATERLOO       MOSUNNY   38  22  52 N20       30.06S WCI  28
$$

IAZ064-065-067-068-078-262300-
   EAST CENTRAL IOWA

CITY           SKY/WX    TMP DP  RH WIND       PRES   REMARKS
DAVENPORT      SUNNY     42  23  46 N22       30.03R WCI  33
IOWA CITY      SUNNY     45  22  40 N16G28    30.05S WCI  38
MT. PLEASANT * SUNNY     46  22  39 NW17G25   30.04S
MUSCATINE *    SUNNY     48  19  32 N21G26    30.03F
QUAD CITIES    SUNNY     45  24  43 N18G29    30.02R WCI  37
$$

IAZ062-063-075>077-085>089-095>099-262300-
   SOUTHEAST IOWA

CITY           SKY/WX    TMP DP  RH WIND       PRES   REMARKS
BURLINGTON     SUNNY     48  24  39 N18       30.02F
FAIRFIELD *    SUNNY     46  23  39 N20       30.05R
KEOKUK *       MOSUNNY   48  25  40 NW17      30.03F
OTTUMWA        SUNNY     46  24  42 N22G28    30.05F
WASHINGTON *   SUNNY     46  23  39 NW22      30.04S
$$

ABBREVIATIONS USED IN REMARKS
   TC - TEMPERATURES IN CELSIUS
  WCI - WIND CHILL INDEX
   HX - HEAT INDEX
  VSB - VISIBILITY
$$



USA.gov is the U.S. government's official web portal to all federal, state and local government web resources and services.